[[{"header":{"parameterUnit":"m.s-1","parameterCategory":1,"la1":30.2991,"la2":30.254,"lo1":-89.0895,"lo2":-89.0444,"dy":0.0017,"dx":0.0017,"nx":28,"ny":28,"refTime":"2023-10-26T21:00:00:Z","depth":0,"parameterNumber":2,"parameterNumberName":"U-component_of_WINDS"},"data":[0,0,0,0,0,0,0,0,0,0,0,0,0,0,0,0,0,0,0,0,0,0,0,0,0,0,0,0,0,0,0,0,0,0,0,0,0,0,0,0,0,0,0,0,0,0,0,0,0,0,0,0,0,0,0,0,0,0,-2.0846,-2.0845,0,-2.077,-2.077,-2.0769,-2.0687,-2.0686,-2.0685,-2.0684,-2.0609,-2.0608,-2.0607,0,0,0,0,0,0,0,0,0,0,0,0,0,-2.0925,-2.0924,-2.0846,-2.0845,-2.0844,-2.0771,-2.0769,-2.0768,-2.0687,-2.0686,-2.0685,-2.0683,-2.0609,-2.0608,-2.0607,0,0,0,0,0,0,0,0,0,0,0,0,0,-2.0874,-2.0924,-2.0846,-2.0795,-2.0789,-2.0771,-2.0769,-2.0768,-2.0688,-2.0686,-2.0684,-2.0683,-2.061,-2.0608,-2.0607,-2.0634,0,0,-2.0603,-2.0602,0,0,0,0,0,0,0,0,-2.0877,-2.0872,-2.0803,-2.0798,-2.0792,-2.0736,-2.077,-2.0723,-2.0688,-2.0726,-2.0684,-2.0682,-2.0653,-2.0648,-2.0638,-2.063,-2.0627,-2.0603,-2.0602,-2.0601,-2.0601,0,0,0,0,0,0,0,-2.0881,-2.0874,-2.0816,-2.0803,-2.0796,-2.0777,-2.0768,-2.0761,-2.0701,-2.0723,-2.0717,-2.0709,-2.065,-2.0639,-2.0635,-2.0626,-2.0603,-2.0602,-2.0601,-2.06,-2.0639,-2.0641,0,0,0,0,0,0,-2.0892,-2.0878,-2.0819,-2.0814,-2.0831,-2.0777,-2.0767,-2.0756,-2.07,-2.069,-2.071,-2.0705,-2.0642,-2.0637,-2.0632,-2.0661,-2.0601,-2.06,-2.0599,-2.0637,-2.064,-2.0642,0,0,0,0,0,0,-2.0894,-2.0887,-2.0822,-2.0844,-2.0834,-2.0778,-2.0766,-2.0756,-2.0745,-2.0691,-2.068,-2.071,-2.0641,-2.0634,-2.0634,-2.0657,-2.0599,-2.0598,-2.0635,-2.0638,-2.0641,-2.0718,0,0,0,0,0,0,-2.0896,-2.0888,-2.0897,-2.0845,-2.0834,-2.0824,-2.0768,-2.0755,-2.0742,-2.0735,-2.0688,-2.0679,-2.0639,-2.0637,-2.0633,-2.0654,-2.0597,-2.0633,-2.0636,-2.064,-2.0713,-2.0723,-2.0731,0,0,0,0,0,-2.09,-2.0921,-2.0897,-2.0891,-2.0842,-2.0825,-2.0818,-2.0771,-2.0745,-2.0753,-2.0719,-2.068,-2.0656,-2.0637,-2.0632,-2.0654,-2.0631,-2.0635,-2.0639,-2.0709,-2.0721,-2.0731,0,0,0,0,0,0,-2.0977,-2.0914,-2.0886,-2.0892,-2.0865,-2.0811,-2.082,-2.0786,-2.0766,-2.076,-2.0704,-2.0694,-2.0701,-2.0677,-2.0658,-2.0678,-2.0638,-2.0642,-2.0693,-2.0704,-2.0713,-2.0718,-2.0596,0,0,0,0,0,-2.0995,-2.0985,-2.093,-2.0941,-2.0929,-2.0877,-2.0868,-2.0834,-2.0804,-2.0792,-2.0758,-2.0731,-2.0717,-2.0709,-2.0694,-2.071,-2.0699,-2.0722,-2.0732,-2.074,-2.0743,-2.0752,-2.0762,-2.0655,-2.0655,-2.0655,0,0,-2.1032,-2.0996,-2.0993,-2.0956,-2.093,-2.0923,-2.0868,-2.0861,-2.0856,-2.0791,-2.0789,-2.0764,-2.073,-2.0739,-2.0741,-2.072,-2.077,-2.0745,-2.0752,-2.075,-2.0757,-2.0767,-2.0776,-2.0658,-2.0658,-2.0657,0,0,-2.1094,-2.1066,-2.1071,-2.1048,-2.1011,-2.0977,-2.0979,-2.0932,-2.0912,-2.0909,-2.0861,-2.0855,-2.0832,-2.081,-2.0797,-2.0855,-2.0819,-2.0852,-2.09,-2.0909,-2.0917,-2.0925,-2.0946,-2.0955,-2.0856,-2.0856,-2.0856,0,-2.1144,-2.1129,-2.1079,-2.1076,-2.1062,-2.1004,-2.1011,-2.0991,-2.0951,-2.0944,-2.0921,-2.0892,-2.0866,-2.0869,-2.0884,-2.0875,-2.0876,-2.0856,-2.092,-2.0927,-2.0933,-2.0953,-2.0961,-2.086,-2.086,-2.0859,-2.0859,0,-2.1193,-2.1184,-2.1194,-2.1157,-2.1144,-2.1147,-2.1099,-2.1092,-2.1061,-2.1031,-2.103,-2.0997,-2.0974,-2.0973,-2.0942,-2.0973,-2.0961,-2.093,-2.0889,-2.0948,-2.0966,-2.0973,-2.0866,-2.0865,-2.0864,-2.0863,0,0,-2.1299,-2.1237,-2.1241,-2.1225,-2.1181,-2.1174,-2.1175,-2.1153,-2.1149,-2.1125,-2.1125,-2.1109,-2.108,-2.1065,-2.1032,-2.104,-2.109,-2.1008,-2.1006,-2.1025,-2.1124,-2.1148,-2.1157,-2.1067,-2.1068,-2.1069,-2.1127,0,-2.1354,-2.135,-2.1307,-2.1317,-2.1309,-2.1256,-2.1257,-2.1232,-2.1204,-2.1195,-2.1165,-2.1155,-2.1118,-2.1108,-2.1114,-2.1083,-2.111,-2.1078,-2.1068,-2.1068,-2.1077,-2.1166,-2.119,-2.1246,-2.1134,-2.1135,-2.1136,0,-2.1416,-2.1395,-2.1404,-2.1363,-2.1358,-2.136,-2.1337,-2.1329,-2.13,-2.128,-2.1264,-2.1228,-2.1228,-2.119,-2.1191,-2.1171,-2.1164,-2.1149,-2.115,-2.1146,-2.1105,-2.1165,-2.1263,-2.1271,-2.1146,-2.1145,-2.1145,0,-2.1493,-2.1468,-2.147,-2.1458,-2.1409,-2.1412,-2.1392,-2.1362,-2.1352,-2.1333,-2.1327,-2.1309,-2.1299,-2.1287,-2.1247,-2.1223,-2.1253,-2.1212,-2.1237,-2.1239,-2.1244,-2.1244,-2.1342,-2.1242,-2.1242,-2.1242,-2.1242,0,-2.1558,-2.1565,-2.1504,-2.1506,-2.1514,-2.1466,-2.1476,-2.1451,-2.1425,-2.1422,-2.1376,-2.1375,-2.1322,-2.1316,-2.1285,-2.1292,-2.1287,-2.1272,-2.1264,-2.1276,-2.1278,-2.127,-2.1265,-2.1244,-2.1243,-2.1243,-2.1243,0,-2.1644,-2.1603,-2.1602,-2.1558,-2.1547,-2.1555,-2.1517,-2.1518,-2.1489,-2.1486,-2.1483,-2.1438,-2.1428,-2.1388,-2.1368,-2.1348,-2.1364,-2.1348,-2.1374,-2.1368,-2.1396,-2.1394,-2.1492,-2.1503,-2.1396,-2.1397,-2.1398,0,-2.1687,-2.1692,-2.1648,-2.1643,-2.1625,-2.1617,-2.1607,-2.1561,-2.1553,-2.1523,-2.1528,-2.1515,-2.1501,-2.1489,-2.1455,-2.1441,-2.1424,-2.146,-2.1421,-2.1434,-2.1425,-2.1425,-2.1426,-2.1467,-2.1469,-2.147,-2.1471,0,-2.1769,-2.1749,-2.1736,-2.1718,-2.1707,-2.169,-2.1671,-2.1669,-2.1619,-2.1613,-2.1602,-2.1592,-2.1573,-2.1561,-2.1542,-2.1523,-2.149,-2.1483,-2.1488,-2.15,-2.1515,-2.1508,-2.1396,-2.1481,-2.148,-2.1479,-2.1478,-2.1478,-2.1834,-2.1837,-2.1807,-2.1795,-2.1776,-2.176,-2.1759,-2.173,-2.172,-2.1701,-2.1675,-2.1669,-2.1643,-2.1614,-2.1598,-2.1594,-2.1574,-2.1582,-2.1583,-2.1586,-2.1592,-2.1517,-2.159,-2.159,-2.1589,-2.1589,-2.1589,0,-2.1914,-2.1893,-2.1882,-2.1857,-2.1848,-2.1817,-2.1795,-2.179,-2.1785,-2.1763,-2.1752,-2.1741,-2.173,-2.1697,-2.1683,-2.1686,-2.1671,-2.1684,-2.1683,-2.168,-2.161,-2.1607,-2.1697,-2.1697,-2.1697,-2.1697,-2.1697,-2.1697,-2.1954,-2.1957,-2.1935,-2.1929,-2.1908,-2.19,-2.1891,-2.1876,-2.1859,-2.1849,-2.184,-2.1818,-2.1793,-2.1777,-2.1767,-2.1758,-2.1755,-2.1774,-2.176,-2.1695,-2.1684,-2.1674,-2.1671,-2.1773,-2.1774,-2.1829,-2.183,-2.183]},{"header":{"parameterUnit":"m.s-1","parameterCategory":1,"la1":30.2991,"la2":30.254,"lo1":-89.0895,"lo2":-89.0444,"dy":0.0017,"dx":0.0017,"nx":28,"ny":28,"refTime":"2023-10-26T21:00:00:Z","depth":0,"parameterNumber":3,"parameterNumberName":"V-component_of_WINDS"},"data":[0,0,0,0,0,0,0,0,0,0,0,0,0,0,0,0,0,0,0,0,0,0,0,0,0,0,0,0,0,0,0,0,0,0,0,0,0,0,0,0,0,0,0,0,0,0,0,0,0,0,0,0,0,0,0,0,0,0,2.1464,2.1463,0,2.1374,2.1373,2.1372,2.1366,2.1367,2.1368,2.1369,2.1272,2.1268,2.1265,0,0,0,0,0,0,0,0,0,0,0,0,0,2.1626,2.1623,2.1464,2.1463,2.1462,2.1374,2.1373,2.1372,2.1366,2.1367,2.1368,2.1369,2.1273,2.1269,2.1265,0,0,0,0,0,0,0,0,0,0,0,0,0,2.1548,2.1622,2.1464,2.1448,2.1446,2.1374,2.1373,2.1371,2.1365,2.1367,2.1368,2.137,2.1274,2.1269,2.1264,2.1201,0,0,2.1248,2.1246,0,0,0,0,0,0,0,0,2.1552,2.1542,2.1452,2.1449,2.1446,2.1383,2.1395,2.1314,2.1365,2.1396,2.1369,2.1371,2.1307,2.1299,2.1279,2.1196,2.1192,2.1247,2.1244,2.1242,2.124,0,0,0,0,0,0,0,2.1558,2.1546,2.1428,2.145,2.1447,2.1444,2.1435,2.1379,2.1344,2.1393,2.1393,2.1382,2.1306,2.1284,2.1277,2.1191,2.1248,2.1243,2.124,2.1238,2.1051,2.105,0,0,0,0,0,0,2.1567,2.155,2.1431,2.1425,2.1504,2.144,2.143,2.1402,2.1344,2.1337,2.1381,2.1382,2.1292,2.1283,2.1273,2.1195,2.1242,2.1237,2.1234,2.1053,2.1051,2.1049,0,0,0,0,0,0,2.157,2.1556,2.1435,2.1488,2.1472,2.1436,2.1404,2.1399,2.1377,2.1335,2.1329,2.1365,2.1293,2.1281,2.1219,2.1192,2.1235,2.123,2.1055,2.1053,2.105,2.1039,0,0,0,0,0,0,2.1575,2.1557,2.1534,2.1487,2.1469,2.1383,2.1403,2.1396,2.1369,2.1369,2.1319,2.1312,2.1293,2.1227,2.1214,2.1185,2.1226,2.1058,2.1054,2.1051,2.1041,2.1036,2.1031,0,0,0,0,0,2.1581,2.1533,2.1533,2.1518,2.1439,2.1382,2.1371,2.1352,2.1366,2.1342,2.1315,2.1313,2.1197,2.1221,2.1206,2.1175,2.1059,2.1055,2.1051,2.1043,2.1037,2.1031,0,0,0,0,0,0,2.1575,2.1526,2.1525,2.1462,2.1426,2.1381,2.1349,2.1346,2.1304,2.1306,2.1284,2.1272,2.1211,2.1187,2.1214,2.1111,2.113,2.1122,2.1129,2.1122,2.1117,2.1124,2.1221,0,0,0,0,0,2.1567,2.1526,2.1485,2.1432,2.1415,2.1385,2.1359,2.1348,2.131,2.1294,2.1263,2.1224,2.1179,2.1149,2.1105,2.1038,2.1027,2.101,2.1005,2.1001,2.0995,2.0957,2.0949,2.1036,2.1036,2.1036,0,0,2.1548,2.1517,2.1492,2.143,2.1401,2.1358,2.1372,2.1325,2.1293,2.1286,2.1227,2.1203,2.1158,2.1094,2.1063,2.1071,2.0968,2.0996,2.0993,2.0989,2.0952,2.0944,2.0937,2.1033,2.1034,2.1034,0,0,2.1492,2.1465,2.1418,2.139,2.1347,2.1328,2.1317,2.1272,2.1256,2.1197,2.1191,2.1151,2.1074,2.1042,2.1016,2.095,2.0947,2.0937,2.091,2.0874,2.0867,2.0861,2.0837,2.0828,2.0931,2.0931,2.0931,0,2.1474,2.141,2.1394,2.1348,2.1321,2.1316,2.1268,2.124,2.1184,2.1165,2.1175,2.1079,2.1048,2.0976,2.0961,2.094,2.0925,2.0942,2.087,2.0863,2.0857,2.0834,2.0825,2.093,2.093,2.093,2.093,0,2.139,2.1346,2.1313,2.1262,2.1231,2.1184,2.1159,2.113,2.1122,2.1102,2.1041,2.1005,2.0953,2.0936,2.0926,2.0862,2.0869,2.0875,2.0893,2.0848,2.0826,2.0817,2.0928,2.0929,2.0929,2.0929,0,0,2.1326,2.1268,2.1256,2.1233,2.1186,2.115,2.1103,2.1055,2.103,2.0992,2.0951,2.0887,2.0892,2.0863,2.085,2.0819,2.0768,2.0828,2.0827,2.0818,2.0695,2.069,2.068,2.0767,2.0765,2.0764,2.0698,0,2.1265,2.1182,2.1167,2.1094,2.1053,2.1048,2.1007,2.0973,2.0953,2.0914,2.0891,2.0846,2.0857,2.0839,2.0808,2.0781,2.0743,2.0786,2.0727,2.0725,2.0737,2.0668,2.0663,2.0603,2.069,2.0688,2.0687,0,2.1181,2.1144,2.1068,2.1027,2.1009,2.0972,2.0927,2.0891,2.0852,2.0839,2.0807,2.0799,2.0748,2.077,2.07,2.0729,2.0704,2.0688,2.0685,2.0678,2.0702,2.0658,2.0583,2.0574,2.0673,2.0674,2.0675,0,2.1142,2.1072,2.1017,2.0998,2.0949,2.0923,2.0902,2.0865,2.0837,2.0797,2.0779,2.0733,2.0708,2.0672,2.0651,2.0669,2.0582,2.0602,2.0569,2.057,2.055,2.0551,2.0469,2.0536,2.0536,2.0536,2.0536,0,2.1074,2.1027,2.0999,2.0966,2.0913,2.0896,2.0844,2.0822,2.079,2.0751,2.0744,2.0707,2.0682,2.0642,2.0625,2.0569,2.0557,2.0545,2.0541,2.0545,2.0546,2.0527,2.0531,2.0534,2.0534,2.0535,2.0535,0,2.102,2.1,2.094,2.09,2.0889,2.0852,2.0816,2.0783,2.0764,2.0715,2.0702,2.0671,2.0623,2.0599,2.0539,2.0528,2.0465,2.0463,2.0478,2.0476,2.0444,2.0447,2.0346,2.0332,2.0409,2.0408,2.0408,0,2.0978,2.0942,2.0899,2.0874,2.0852,2.0811,2.0783,2.0765,2.0736,2.069,2.0662,2.0614,2.0575,2.0498,2.0469,2.0423,2.042,2.0388,2.0413,2.0419,2.0419,2.0421,2.0417,2.0383,2.0382,2.0382,2.0381,0,2.0905,2.0897,2.0858,2.0816,2.0784,2.0749,2.0715,2.0694,2.067,2.0638,2.0591,2.056,2.05,2.0452,2.0405,2.038,2.0376,2.0374,2.0364,2.0367,2.0377,2.0371,2.0465,2.0376,2.0377,2.0377,2.0377,2.0377,2.0855,2.0823,2.0788,2.0746,2.0719,2.0687,2.0654,2.0632,2.0592,2.0543,2.0534,2.0483,2.0445,2.0381,2.0356,2.0315,2.0321,2.0307,2.0303,2.0299,2.0298,2.0385,2.0306,2.0306,2.0306,2.0306,2.0306,0,2.0781,2.0759,2.072,2.0673,2.064,2.0642,2.0604,2.0575,2.0531,2.0497,2.046,2.0404,2.0359,2.0327,2.028,2.0253,2.025,2.0241,2.0242,2.0237,2.0294,2.0308,2.0245,2.0245,2.0245,2.0245,2.0245,2.0245,2.0738,2.0685,2.0673,2.0606,2.0584,2.0535,2.0514,2.0485,2.0458,2.0397,2.036,2.034,2.0307,2.0258,2.0215,2.0207,2.0189,2.0181,2.0172,2.0226,2.0233,2.0239,2.0251,2.0177,2.0177,2.0118,2.0117,2.0117]}]]